Weather History for KMTJ - April, 2013

Change the Weather History Date:

Friday, April 19, 2013

  Actual Average Record
Temperature  
Mean Temperature 37 °F 50 °F  
Max Temperature 52 °F 64 °F 78 °F (1999)
Min Temperature 22 °F 36 °F 22 °F (2013)
Degree Days  
Heating Degree Days 28 15  
Month to date heating degree days 380 334  
Since 1 July heating degree days 5766 5790  
Cooling Degree Days 0 0  
Month to date cooling degree days 0 0  
Year to date cooling degree days 0 0  
Moisture  
Dew Point 19 °F    
Average Humidity 56    
Maximum Humidity 84    
Minimum Humidity 28    
Precipitation  
Precipitation 0.00 in 0.04 in 0.08 in (2012)
Month to date precipitation 0.82 0.62  
Year to date precipitation 2.05 2.87  
Sea Level Pressure  
Sea Level Pressure 30.20 in    
Wind  
Wind Speed 3 mph (ESE)    
Max Wind Speed 13 mph    
Max Gust Speed 18 mph    
Visibility 10 miles    
Events      
T = Trace of Precipitation, MM = Missing Value Source: NWS Daily Summary

Daily Weather History Graph

Daily Weather History Graph

Search for Another Location

Airport or City:

Trip Planner

Search our weather history database for the weather conditions in past years. The results will help you decide how hot, cold, wet, or windy it might be!

Date:

Astronomy

Apr. 19, 2013 Rise Set
Actual Time 6:29 AM MDT 7:52 PM MDT
Civil Twilight 6:01 AM MDT 8:20 PM MDT
Nautical Twilight 5:28 AM MDT 8:53 PM MDT
Astronomical Twilight 4:53 AM MDT 9:28 PM MDT
Moon 1:44 PM MDT (4/19) 2:42 AM MDT (4/19)
Length of Visible Light 14h 18m
Length of Day
13h 22m
Waxing Gibbous, 62% of the Moon is Illuminated
Apr 19
Waxing Gibbous
Apr 25
Full
May 2
Last Quarter
May 9
New
May 17
First Quarter

Hourly Weather History & Observations

Time (MDT) Temp. Windchill Dew Point Humidity Pressure Visibility Wind Dir Wind Speed Gust Speed Precip Events Conditions
12:53 AM 27.0 °F 18.7 °F 17.1 °F 66% 30.36 in 10.0 mi ESE 8.1 mph - N/A   Clear
1:53 AM 26.1 °F 18.4 °F 17.1 °F 69% 30.35 in 10.0 mi SE 6.9 mph - N/A   Clear
2:53 AM 26.1 °F 21.9 °F 16.0 °F 66% 30.34 in 10.0 mi East 3.5 mph - N/A   Clear
3:53 AM 24.1 °F - 17.1 °F 75% 30.35 in 10.0 mi Calm Calm - N/A   Clear
4:53 AM 21.9 °F 17.2 °F 17.1 °F 82% 30.35 in 10.0 mi SE 3.5 mph - N/A   Clear
5:53 AM 23.0 °F 15.8 °F 17.1 °F 78% 30.35 in 10.0 mi ESE 5.8 mph - N/A   Clear
6:53 AM 23.0 °F 15.8 °F 16.0 °F 74% 30.35 in 10.0 mi South 5.8 mph - N/A   Clear
7:53 AM 27.0 °F 20.5 °F 16.0 °F 63% 30.34 in 10.0 mi SSE 5.8 mph - N/A   Clear
8:53 AM 30.9 °F - 14.0 °F 50% 30.33 in 10.0 mi Calm Calm - N/A   Clear
9:53 AM 33.1 °F - 15.1 °F 48% 30.31 in 10.0 mi Calm Calm - N/A   Clear
10:53 AM 37.9 °F - 14.0 °F 38% 30.27 in 10.0 mi Calm Calm - N/A   Clear
11:53 AM 43.0 °F 41.3 °F 18.0 °F 37% 30.23 in 10.0 mi Variable 3.5 mph - N/A   Clear
12:53 PM 45.0 °F - 17.1 °F 33% 30.20 in 10.0 mi Calm Calm - N/A   Clear
1:53 PM 48.0 °F - 18.0 °F 30% 30.16 in 10.0 mi Calm Calm - N/A   Clear
2:53 PM 48.9 °F - 19.9 °F 32% 30.12 in 10.0 mi ENE 8.1 mph - N/A   Clear
3:53 PM 50.0 °F - 19.0 °F 29% 30.09 in 10.0 mi East 3.5 mph - N/A   Clear
4:53 PM 50.0 °F - 19.9 °F 31% 30.07 in 10.0 mi ESE 3.5 mph - N/A   Clear
5:53 PM 52.0 °F - 19.9 °F 28% 30.04 in 10.0 mi Calm Calm - N/A   Clear
6:53 PM 51.1 °F - 21.9 °F 32% 30.03 in 10.0 mi North 6.9 mph - N/A   Partly Cloudy
7:53 PM 46.9 °F - 21.9 °F 37% 30.03 in 10.0 mi NNW 8.1 mph - N/A   Mostly Cloudy
8:53 PM 46.9 °F - 24.1 °F 41% 30.04 in 10.0 mi NNW 6.9 mph - N/A   Overcast
9:53 PM 46.0 °F 44.8 °F 28.0 °F 50% 30.05 in 10.0 mi WNW 3.5 mph - N/A   Overcast
10:53 PM 44.1 °F 40.8 °F 26.1 °F 49% 30.04 in 10.0 mi SSW 5.8 mph - N/A   Overcast
11:53 PM 44.1 °F - 28.0 °F 53% 30.01 in 10.0 mi Calm Calm - N/A   Overcast